Погода в Чуднове

Украина / Житомирская область     50°03′09″N   28°07′06″E
темп.,
°C
ветер,
м/с
пор.,
м/с
влажн.,
%
обл.,
%
осадки,
мм/ч
давл.,
гПа
погр.,
м
11 мая, вт
вт1100:00+9юв46800 0.0 102383
03:00+7вюв35830 0.0 102385
06:00+6вюв34780 0.0 102355
09:00+12вюв35610 0.0 1023413
12:00+16в34490 0.0 1021978
15:00+19в34531 0.0 10201159
18:00+19всв34590 0.0 10191194
21:00+13всв48820 0.0 1018131
12 мая, ср
ср1200:00+11всв36921 0.0 1018104
03:00+10в499824 0.0 1017232
06:00+8в5119740 0.0 1017394
09:00+10в797316 0.0 1017875
12:00+12в786474 0.0 10171313
15:00+11в6865100 0.1 10161340
18:00+11в477189 0.0 10151036
21:00+8вюв3386100 0.1 101451
13 мая, чт
чт1300:00+6вюв3394100 0.0 101355
03:00+5вюв3495100 0.0 101270
06:00+5юв3595100 0.0 1010105
09:00+10ююв5774100 0.0 1010617
12:00+9ююв61081100 0.1 1009606
15:00+10юв7118399 0.3 1009714
18:00+13ююв7138199 0.3 1007927
21:00+12ююв61387100 0.4 1007676
14 мая, пт
пт1400:00+11ююв61293100 0.3 1007624
03:00+11ююв51195100 1.1 1006608
06:00+10ююв4796100 0.1 1006299
09:00+11ю369381 0.1 1007212
12:00+18ююз4564100 0.1 10061195
15:00+18ююз4563100 1.4 10061292
18:00+17ююз4678100 2.3 1007698
21:00+13юз3391100 5.4 100761
15 мая, сб
сб1500:00+12зсз369296 1.4 1009160
03:00+11з379472 1.4 1009189
06:00+8з389735 0.0 1011183
09:00+12з578288 0.0 1011634
12:00+12з4780100 0.0 1012713
15:00+15зюз4772100 0.3 1012946
18:00+17зюз3766100 0.0 10111382
21:00+12зюз22795 0.0 101212